Regional Weather Roundup
Issued by NWS

Home | Current Version | Previous Version | Graphics & Text | Print | Product List | Glossary On
Versions: 1 2 3 4 5 6 7 8 9 10 11 12 13 14 15 16 17 18 19 20 21 22 23 24 25 26 27 28 29 30 31 32 33 34 35 36 37 38 39 40 41 42 43 44 45 46 47 48 49 50
000
ASUS43 KMPX 060210
RWRMN
WEATHER ROUNDUP FOR MINNESOTA
NATIONAL WEATHER SERVICE TWIN CITIES/CHANHASSEN MN
800 PM CST FRI FEB 05 2016


NOTE: "FAIR" INDICATES FEW OR NO CLOUDS BELOW 12,000 FEET WITH NO
SIGNIFICANT WEATHER AND/OR OBSTRUCTIONS TO VISIBILITY. N/A MEANS
CURRENT SKY AND/OR WEATHER CONDITIONS ARE NOT AVAILABLE.

MNZ060>063-068>070-060300-
   Twin Cities Metro

CITY           SKY/WX    TMP DP  RH WIND       PRES   REMARKS
TWIN CITIES    FLURRIES  25  19  78 S8        30.20F WCI  16
ST PAUL        FLURRIES  25  19  78 S8        30.22F WCI  16
CRYSTAL        CLOUDY    26  20  77 S10       30.18F WCI  16
BLAINE         CLOUDY    27  21  80 SW8       30.19S WCI  18
LAKEVILLE      FLURRIES  23  19  86 SW6       30.20F WCI  16
EDEN PRAIRIE   CLOUDY    25  19  78 S9        30.19S WCI  15
SOUTH ST PAUL  CLOUDY    25  20  80 S5        30.21F WCI  20
LAKE ELMO      CLOUDY    25  21  86 S9        30.21F WCI  15
$$
MNZ001>005-007-008-013>017-022>024-027-028-060300-
   Northwest Minnesota

CITY           SKY/WX    TMP DP  RH WIND       PRES   REMARKS
BEMIDJI        CLEAR     18  17  93 W5        30.09S WCI  11
HALLOCK        CLOUDY    12  10  92 S6        30.10S WCI   3
ROSEAU         CLOUDY    19  16  86 SW6       30.08F WCI  11
WARROAD        CLOUDY    19  16  86 SW3       30.08F
THIEF RVR FALL CLOUDY    12  10  92 S5        30.11F WCI   4
CROOKSTON      CLOUDY    12  12 100 SE6       30.13F WCI   3
FOSSTON        FOG        9   7  92 S3        30.11F VSB 1/4
DETROIT LAKES  CLOUDY    25  23  93 CALM      30.13R
MOORHEAD       CLOUDY    19  18  93 S3        30.15F FOG
PARK RAPIDS    MOCLDY    20  16  84 W8        30.10S WCI  10
MAHNOMEN       FOG       12  10  91 S6        30.11S VSB 1/2 WCI   3
$$
MNZ006-009>011-018-025>026-060300-
   North Central Minnesota

CITY           SKY/WX    TMP DP  RH WIND       PRES   REMARKS
BAUDETTE       CLOUDY    23  14  68 W8        30.06S WCI  14
FLAG ISLAND    CLOUDY    19  16  86 CALM      30.06S
INTL FALLS     CLOUDY    23  15  71 W6        30.06S WCI  16
WASKISH        CLOUDY    19  16  86 SW7       30.09S WCI  10
LONGVILLE      CLOUDY    27  19  74 CALM      30.09F
GRAND RAPIDS   CLOUDY    25  18  74 SW6       30.07F WCI  18
CRANE LAKE     CLOUDY    21  16  79 SW2       30.08S
ORR            CLOUDY    23  14  68 CALM      30.03F
COOK           CLOUDY    25  18  74 W5        30.07S WCI  19
WALKER         FAIR      22  18  84 W6        30.09S WCI  15
$$
MNZ012-019>021-037-060300-
   Northeast Minnesota

CITY           SKY/WX    TMP DP  RH WIND       PRES   REMARKS
DULUTH         CLOUDY    24  13  62 W12       30.08F WCI  13
ELY            CLOUDY    23  16  74 W5        30.05S WCI  17
HIBBING        CLOUDY    24  15  68 S3        30.07S
EVELETH        MOCLDY    27  14  59 SW7       30.07F WCI  19
DULUTH HARBOR  CLOUDY    28  16  59 SW12      30.14S WCI  18
TWO HARBORS    CLOUDY    28  18  64 SW9       30.07F WCI  20
SILVER BAY     CLOUDY    27  14  59 SW6       30.05F WCI  20
GRAND MARAIS     N/A     25  16  68 W5        30.08F WCI  19
G MARAIS ARPRT CLOUDY    18  10  73 SW5       30.01F WCI  11
$$
MNZ029>031-032-039>041-046>048-054>057-064-060300-
   West Central Minnesota

CITY           SKY/WX    TMP DP  RH WIND       PRES   REMARKS
FERGUS FALLS   FOG       19  16  86 CALM      30.18S VSB 1/4
WHEATON        CLEAR     25  21  86 W3        30.18S
MORRIS         CLEAR     25  23  93 SW3       30.15S FOG
ALEXANDRIA     CLOUDY    25  22  88 W5        30.13F WCI  19
ELBOW LAKE     SNOW      20  20  97 CALM      30.15S VSB 1/2
WADENA         CLOUDY    23  19  86 W3        30.11F
GLENWOOD       CLOUDY    25  23  93 W8        30.15R WCI  16
APPLETON       MOCLDY    21  19  93 CALM      30.18R FOG
BENSON         CLOUDY    27  23  86 CALM      30.17S
ORTONVILLE     CLEAR     23  21  93 CALM      30.16F
MADISON        CLEAR     21  19  93 SW3       30.18S
WILLMAR        CLOUDY    27  25  93 W7        30.17F WCI  19
$$
MNZ033>034-036-042>043-049>051-058-059-060300-
   Central Minnesota

CITY           SKY/WX    TMP DP  RH WIND       PRES   REMARKS
ST CLOUD       PTCLDY    21  16  81 S8        30.15F WCI  11
SAUK CENTRE    CLOUDY    25  21  85 W7        30.15R WCI  17
PAYNESVILLE    CLOUDY    23  20  87 SW5       30.15F WCI  17
AITKIN         CLOUDY    27  16  63 SW7       30.10S WCI  19
PINE RIVER     CLOUDY    27  21  80 SW5       30.13F WCI  21
BRAINERD       CLOUDY    24  17  74 SW6       30.13S WCI  17
STAPLES        CLOUDY    23  19  86 W6        30.12F WCI  16
LONG PRAIRIE   CLOUDY    25  21  86 SW5       30.13F WCI  19
LITTLE FALLS   CLOUDY    25  18  74 CALM      30.15S
LITCHFIELD     PTCLDY    25  23  93 CALM      30.17S
BUFFALO        CLOUDY    25  21  86 S7        30.18F WCI  17
MAPLE LAKE     CLOUDY    26  23  89 S6        30.18S WCI  19
$$
MNZ037-044-045-052-053-060300-
   East Central Minnesota

CITY           SKY/WX    TMP DP  RH WIND       PRES   REMARKS
PRINCETON      CLOUDY    27  21  80 S7        30.16S WCI  19
MORA           CLOUDY    27  19  74 SW7       30.17S WCI  19
CAMBRIDGE      CLOUDY    27  18  69 S8        30.15F WCI  18
RUSH CITY      CLOUDY    26  20  77 SW7       30.17S WCI  18
MOOSE LAKE     CLOUDY    27  16  63 SW12      30.11F WCI  16
HINCKLEY       CLOUDY    27  19  74 SW8       30.16R WCI  18
CLOQUET        CLOUDY    25  12  58 SW5       30.09F WCI  19
MCGREGOR       CLOUDY    27  19  74 SW7       30.12S WCI  19
$$
MNZ071>073-080-081-089-090-097-098-060300-
   Southwest Minnesota

CITY           SKY/WX    TMP DP  RH WIND       PRES   REMARKS
MONTEVIDEO     MOCLDY    27  19  74 CALM      30.19S
GRANITE FALLS  CLOUDY    28  25  86 W3        30.20S
CANBY          CLEAR     26  23  89 SW3       30.18F
REDWOOD FALLS  CLOUDY    27  23  85 W8        30.18S WCI  19
OLIVIA         CLOUDY    28  25  86 SW6       30.17S WCI  22
PIPESTONE        N/A     28  21  74 NW6       30.16S WCI  22
WINDOM         MOCLDY    27  25  93 SW9       30.17S FOG     WCI  17
WORTHINGTON    CLOUDY    25  21  86 SW10      30.18S WCI  15
JACKSON        CLOUDY    28  25  86 SW10      30.18F FOG     WCI  19
TRACY          CLOUDY    29  26  88 W5        30.17S WCI  24
SLAYTON        CLOUDY    27  27  99 W9        30.18S WCI  18
$$
MNZ065>067-074>077-082>085-091>093-060300-
   South Central Minnesota

CITY           SKY/WX    TMP DP  RH WIND       PRES   REMARKS
MANKATO        CLOUDY    25  19  80 SW12      30.19F WCI  14
NEW ULM        MOCLDY    27  25  93 SW6       30.18F WCI  20
ST JAMES       CLOUDY    28  27  93 SW7       30.20S WCI  21
FAIRMONT       CLOUDY    25  19  80 S13       30.18F WCI  13
GLENCOE        CLOUDY    27  25  92 S8        30.17F WCI  18
FARIBAULT      CLOUDY    25  19  80 S9        30.21F WCI  15
OWATONNA       CLOUDY    25  19  80 S14       30.20S WCI  13
WASECA         CLOUDY    23  21  93 S15       30.21F WCI  10
ALBERT LEA     CLOUDY    25  19  80 S8        30.21S WCI  16
$$
MNZ078>079-086>088-094>096-060300-
   Southeast Minnesota

CITY           SKY/WX    TMP DP  RH WIND       PRES   REMARKS
ROCHESTER      CLOUDY    21  15  78 S15       30.21F WCI   8
RED WING       CLOUDY    25  18  74 S6        30.22F WCI  18
STANTON        FLURRIES  26  21  83 SW10      30.20F WCI  15
DODGE CENTER   CLOUDY    21  18  86 SW15      30.20F WCI   8
WINONA         CLOUDY    25  14  63 S3        30.26F
AUSTIN         CLOUDY    21  18  86 S12       30.21F WCI   9
PRESTON        CLOUDY    20  14  79 S12       30.23F WCI   8
$$
ABBREVIATIONS USED IN REMARKS
   TC - TEMPERATURES IN CELSIUS
  WCI - WIND CHILL INDEX
   HX - HEAT INDEX
  VSB - VISIBILITY
$$



USA.gov is the U.S. government's official web portal to all federal, state and local government web resources and services.